EW8827 Vikebygd NO current weather conditions

sailwx.info

Wind from 125 at 1 knots gusting 1

Air temperature 10.0° C
Dewpoint 8.1° C

Last reported at 2020-Jul-10 23:02 UTC.
Time now 2020-Jul-10 23:26 UTC

Location: N 59°35' E 005°35'.
View on Google Maps.

See reports from other nearby stations

  
Tides and Currents Weather Stations Pressure Air Temp Water Temp Dewpoint Dewpoint Depression Visibility Wind Speed Wind Dir Waves Ship Positions
date/time (UTC)wind fromknots sea level pressurealtimeterstation pressurevisibilityair tempwater tempwave heightnotes
2020-Jul-10 23:02 125 1 gusting 1 10.0
2020-Jul-10 22:57 125 1 gusting 2 10.0
2020-Jul-10 22:52 126 1 gusting 1 10.0
2020-Jul-10 22:47 126 1 gusting 1 10.0
2020-Jul-10 22:42 126 1 gusting 4 10.0
2020-Jul-10 22:37 131 1 gusting 1 10.0
2020-Jul-10 22:32 131 1 gusting 2 10.0
2020-Jul-10 22:27 133 1 gusting 2 10.0
2020-Jul-10 22:22 133 1 gusting 2 10.0
2020-Jul-10 22:17 118 1 gusting 4 10.0
2020-Jul-10 22:12 179 1 gusting 2 10.6
2020-Jul-10 22:07 123 0 gusting 1 10.6
2020-Jul-10 22:02 123 0 gusting 1 10.6
2020-Jul-10 21:57 153 0 gusting 2 10.6
2020-Jul-10 21:52 291 0 gusting 1 10.6
2020-Jul-10 21:47 296 1 gusting 2 10.6
2020-Jul-10 21:42 138 1 gusting 4 10.6
2020-Jul-10 21:37 132 0 gusting 4 10.6
2020-Jul-10 21:32 337 0 gusting 2 10.6
2020-Jul-10 21:27 328 1 gusting 1 10.6
2020-Jul-10 21:22 328 1 gusting 2 10.6
2020-Jul-10 21:17 156 0 gusting 1 10.6
2020-Jul-10 21:12 181 0 gusting 1 11.1
2020-Jul-10 21:07 322 1 gusting 4 11.1
2020-Jul-10 21:02 316 1 gusting 4 11.1
2020-Jul-10 20:57 117 0 gusting 2 11.1
2020-Jul-10 20:52 035 0 gusting 2 11.1
2020-Jul-10 20:47 138 11.7
2020-Jul-10 20:42 146 11.7
2020-Jul-10 20:37 293 0 11.7
2020-Jul-10 20:32 294 0 gusting 5 11.7
2020-Jul-10 20:27 332 1 gusting 1 11.7
2020-Jul-10 20:22 332 1 gusting 1 11.7
2020-Jul-10 20:17 325 1 gusting 2 11.7
2020-Jul-10 20:12 182 1 gusting 4 12.2
2020-Jul-10 20:07 327 1 gusting 4 12.2
2020-Jul-10 20:02 187 1 gusting 2 12.2
2020-Jul-10 19:57 340 1 gusting 4 12.2
2020-Jul-10 19:52 277 1 gusting 4 12.2
2020-Jul-10 19:47 359 1 gusting 4 12.2
2020-Jul-10 19:42 322 1 gusting 5 12.2
2020-Jul-10 19:37 347 1 gusting 5 12.8
2020-Jul-10 19:32 314 1 gusting 6 12.8
2020-Jul-10 19:27 317 1 gusting 2 12.8
2020-Jul-10 19:22 307 1 gusting 4 13.3
2020-Jul-10 19:17 322 1 gusting 6 13.3
2020-Jul-10 19:12 297 2 gusting 5 13.9
2020-Jul-10 19:07 304 2 gusting 6 13.9
2020-Jul-10 19:02 333 2 gusting 8 14.4
2020-Jul-10 18:57 002 1 gusting 6 15.0
2020-Jul-10 18:52 271 2 gusting 5 15.0
2020-Jul-10 18:47 308 2 gusting 4 14.4
2020-Jul-10 18:42 290 2 gusting 6 14.4
2020-Jul-10 18:37 317 4 gusting 6 14.4
2020-Jul-10 18:32 318 4 gusting 6 14.4
2020-Jul-10 18:27 310 4 gusting 7 14.4
2020-Jul-10 18:22 300 3 gusting 6 14.4
2020-Jul-10 18:17 304 2 gusting 12 14.4
2020-Jul-10 18:12 323 2 gusting 6 14.4
2020-Jul-10 18:07 322 2 gusting 7 13.9
2020-Jul-10 18:02 337 2 gusting 6 13.9
2020-Jul-10 17:57 342 2 gusting 5 13.9
2020-Jul-10 17:52 020 2 gusting 6 13.9
2020-Jul-10 17:47 319 4 gusting 8 13.9
2020-Jul-10 17:42 315 4 gusting 10 13.9
2020-Jul-10 17:37 297 4 gusting 5 13.9
2020-Jul-10 17:32 306 4 gusting 10 13.9
2020-Jul-10 17:27 335 4 gusting 7 13.9
2020-Jul-10 17:22 301 4 gusting 7 13.9
2020-Jul-10 17:17 325 4 gusting 7 14.4
2020-Jul-10 17:12 335 4 gusting 7 14.4
2020-Jul-10 17:07 014 4 gusting 8 14.4
2020-Jul-10 17:02 323 4 gusting 8 15.0
2020-Jul-10 16:57 323 4 gusting 6 15.0
2020-Jul-10 16:52 321 3 gusting 8 15.0
2020-Jul-10 16:47 002 2 gusting 6 14.4
2020-Jul-10 16:42 334 2 gusting 7 14.4
2020-Jul-10 16:37 321 4 gusting 4 14.4
2020-Jul-10 16:32 301 4 gusting 11 14.4
2020-Jul-10 16:27 328 4 gusting 10 14.4
2020-Jul-10 16:22 096 4 gusting 11 14.4
2020-Jul-10 16:17 328 2 gusting 6 14.4
2020-Jul-10 16:12 313 3 gusting 7 14.4
2020-Jul-10 16:07 017 4 gusting 6 14.4
2020-Jul-10 16:02 038 4 gusting 7 14.4
2020-Jul-10 15:57 296 4 gusting 7 14.4
2020-Jul-10 15:52 346 4 gusting 8 14.4
2020-Jul-10 15:47 321 5 gusting 10 14.4
2020-Jul-10 15:42 296 4 gusting 8 14.4
2020-Jul-10 15:37 303 4 gusting 12 15.0
2020-Jul-10 15:32 335 4 gusting 10 15.0
2020-Jul-10 15:27 102 4 gusting 10 15.0
2020-Jul-10 15:22 312 4 gusting 7 15.0
2020-Jul-10 15:17 247 4 gusting 11 15.0
2020-Jul-10 15:12 293 4 gusting 6 15.6
2020-Jul-10 15:07 010 4 gusting 7 15.6
2020-Jul-10 15:02 083 4 gusting 6 15.6
2020-Jul-10 14:57 317 4 gusting 6 15.6
2020-Jul-10 14:52 330 4 gusting 10 15.6
2020-Jul-10 14:47 267 2 gusting 7 15.6
2020-Jul-10 14:42 255 3 gusting 5 15.6
2020-Jul-10 14:37 339 4 gusting 6 15.6
2020-Jul-10 14:32 312 4 gusting 10 15.6
2020-Jul-10 14:27 318 4 gusting 10 15.6
2020-Jul-10 14:22 320 4 gusting 10 15.6
2020-Jul-10 14:17 340 4 gusting 7 15.6
2020-Jul-10 14:12 318 4 gusting 6 16.1
2020-Jul-10 14:07 061 4 gusting 5 15.6
2020-Jul-10 14:02 042 4 gusting 10 15.6
2020-Jul-10 13:57 329 4 gusting 12 15.6
2020-Jul-10 13:52 301 4 gusting 11 15.6
2020-Jul-10 13:47 344 4 gusting 10 16.1
2020-Jul-10 13:42 330 4 gusting 11 16.1
2020-Jul-10 13:37 326 4 gusting 6 16.1
2020-Jul-10 13:32 333 4 gusting 7 16.1
2020-Jul-10 13:27 313 4 gusting 11 16.1
2020-Jul-10 13:22 331 4 gusting 12 16.1
2020-Jul-10 13:17 005 2 gusting 11 16.1
2020-Jul-10 13:12 318 2 gusting 8 16.1
2020-Jul-10 13:07 290 4 gusting 6 16.1
2020-Jul-10 13:02 309 4 gusting 6 16.1
2020-Jul-10 12:57 324 4 gusting 6 16.1
2020-Jul-10 12:52 292 4 gusting 6 16.1
2020-Jul-10 12:47 334 4 gusting 8 16.1
2020-Jul-10 12:42 251 4 gusting 8 16.1
2020-Jul-10 12:37 298 4 gusting 12 16.1
2020-Jul-10 12:32 006 4 gusting 6 16.1
2020-Jul-10 12:27 296 4 gusting 6 16.1
2020-Jul-10 12:22 318 4 gusting 12 16.1
2020-Jul-10 12:17 284 4 gusting 10 16.1
2020-Jul-10 12:12 301 4 gusting 7 15.6
2020-Jul-10 12:07 330 4 gusting 6 15.6
2020-Jul-10 12:02 329 4 gusting 10 15.6
2020-Jul-10 11:57 326 4 gusting 7 15.6
2020-Jul-10 11:52 320 4 gusting 8 15.6
2020-Jul-10 11:47 332 4 gusting 7 15.6
2020-Jul-10 11:42 317 4 gusting 8 15.6
2020-Jul-10 11:37 058 4 gusting 11 15.6
2020-Jul-10 11:32 301 4 gusting 8 15.6
2020-Jul-10 11:27 317 4 gusting 7 15.6
2020-Jul-10 11:22 288 4 gusting 7 15.6
2020-Jul-10 11:17 330 4 gusting 7 15.0
2020-Jul-10 11:12 343 3 gusting 11 15.0
2020-Jul-10 11:07 294 2 gusting 6 15.0
2020-Jul-10 11:02 326 2 gusting 6 15.0
2020-Jul-10 10:57 317 4 gusting 6 15.0
2020-Jul-10 10:52 348 4 gusting 11 15.0
2020-Jul-10 10:47 283 4 gusting 6 15.0
2020-Jul-10 10:42 287 4 gusting 8 15.6
2020-Jul-10 10:37 324 4 gusting 10 15.6
2020-Jul-10 10:32 352 4 gusting 6 15.6
2020-Jul-10 10:27 339 4 gusting 6 15.6
2020-Jul-10 10:22 327 4 gusting 10 15.6
2020-Jul-10 10:17 302 4 gusting 6 15.6
2020-Jul-10 10:12 299 4 gusting 10 15.6
2020-Jul-10 10:07 309 4 gusting 11 15.6
2020-Jul-10 10:02 348 4 gusting 7 15.6
2020-Jul-10 09:57 346 2 gusting 7 15.6
2020-Jul-10 09:52 305 2 gusting 6 15.6
2020-Jul-10 09:47 311 4 gusting 7 15.6
2020-Jul-10 09:42 355 4 gusting 7 15.6
2020-Jul-10 09:37 335 4 gusting 10 15.6
2020-Jul-10 09:32 323 4 gusting 7 15.6
2020-Jul-10 09:27 345 4 gusting 8 15.0
2020-Jul-10 09:22 014 4 gusting 8 15.0
2020-Jul-10 09:17 324 4 gusting 8 15.0
2020-Jul-10 09:12 329 4 gusting 7 15.0
2020-Jul-10 09:07 088 2 gusting 8 15.0
2020-Jul-10 09:02 313 2 gusting 6 15.0
2020-Jul-10 08:57 291 4 gusting 6 14.4
2020-Jul-10 08:52 296 4 gusting 5 14.4
2020-Jul-10 08:47 322 4 gusting 6 14.4
2020-Jul-10 08:42 324 3 gusting 6 13.9
2020-Jul-10 08:37 336 1 gusting 6 14.4
2020-Jul-10 08:32 324 1 gusting 7 14.4
2020-Jul-10 08:27 306 1 gusting 5 14.4
2020-Jul-10 08:22 005 1 gusting 6 15.0
2020-Jul-10 08:17 313 1 gusting 4 14.4
2020-Jul-10 08:12 314 1 gusting 4 14.4
2020-Jul-10 08:07 313 1 gusting 4 14.4
2020-Jul-10 08:02 356 1 gusting 4 14.4
2020-Jul-10 07:57 006 1 gusting 2 14.4
2020-Jul-10 07:52 295 1 gusting 6 14.4
2020-Jul-10 07:47 334 1 gusting 5 14.4
2020-Jul-10 07:42 320 1 gusting 4 14.4
2020-Jul-10 07:37 335 1 gusting 6 13.9
2020-Jul-10 07:32 310 1 gusting 4 13.9
2020-Jul-10 07:27 297 1 gusting 5 13.9
2020-Jul-10 07:22 305 1 gusting 5 13.9
2020-Jul-10 07:17 320 1 gusting 5 13.3
2020-Jul-10 07:12 289 1 gusting 5 13.3
2020-Jul-10 07:07 324 1 gusting 5 13.3
2020-Jul-10 07:02 341 1 gusting 4 13.3
2020-Jul-10 06:57 213 1 gusting 5 13.3
2020-Jul-10 06:52 047 1 gusting 4 13.3
2020-Jul-10 06:47 004 1 gusting 5 12.8
2020-Jul-10 06:42 333 1 gusting 6 12.8
2020-Jul-10 06:37 348 1 gusting 5 12.8
2020-Jul-10 06:32 282 1 gusting 5 12.8
2020-Jul-10 06:27 335 12.2
2020-Jul-10 06:22 322 12.2
2020-Jul-10 06:17 322 11.7
2020-Jul-10 06:12 325 11.7
2020-Jul-10 06:07 355 11.7
2020-Jul-10 06:02 325 11.1
2020-Jul-10 05:57 325 0 gusting 2 11.1
2020-Jul-10 05:52 323 0 gusting 2 11.1
2020-Jul-10 05:47 323 10.6
2020-Jul-10 05:42 340 10.6
2020-Jul-10 05:37 117 0 gusting 1 10.6
2020-Jul-10 05:32 119 0 gusting 2 10.0
2020-Jul-10 05:27 120 10.0
2020-Jul-10 05:22 121 10.0
2020-Jul-10 05:17 121 0 gusting 1 10.0
2020-Jul-10 05:12 121 0 gusting 1 9.4
2020-Jul-10 05:07 121 0 gusting 1 9.4
2020-Jul-10 05:02 121 0 gusting 1 9.4
2020-Jul-10 04:57 121 0 gusting 1 9.4
2020-Jul-10 04:52 121 0 gusting 1 8.9
2020-Jul-10 04:47 121 0 gusting 1 8.9
2020-Jul-10 04:42 120 0 gusting 1 8.3
2020-Jul-10 04:37 120 8.3
2020-Jul-10 04:32 120 8.3
2020-Jul-10 04:27 120 8.3
2020-Jul-10 04:22 120 7.8
2020-Jul-10 04:17 120 7.8
2020-Jul-10 04:12 120 0 gusting 1 7.8
2020-Jul-10 04:07 120 1 8.3
2020-Jul-10 04:02 120 1 gusting 2 8.3
2020-Jul-10 03:57 121 8.3
2020-Jul-10 03:52 125 8.3
2020-Jul-10 03:47 125 8.3
2020-Jul-10 03:42 125 8.3
2020-Jul-10 03:37 125 1 gusting 1 8.3
2020-Jul-10 03:32 125 1 gusting 1 8.3
2020-Jul-10 03:27 125 1 gusting 2 8.3
2020-Jul-10 03:22 125 1 gusting 4 8.3
2020-Jul-10 03:17 116 1 gusting 2 8.3
2020-Jul-10 03:12 114 1 gusting 2 8.3
2020-Jul-10 03:07 114 1 gusting 1 8.3
2020-Jul-10 03:02 114 1 gusting 2 8.3
2020-Jul-10 02:57 114 1 gusting 1 8.3
2020-Jul-10 02:52 115 1 gusting 1 8.3
2020-Jul-10 02:47 115 0 gusting 2 8.3
2020-Jul-10 02:42 115 0 gusting 1 8.3
2020-Jul-10 02:37 115 1 gusting 1 8.3
2020-Jul-10 02:32 115 1 gusting 2 8.3
2020-Jul-10 02:27 108 0 gusting 2 8.3
2020-Jul-10 02:22 108 0 gusting 1 8.3
2020-Jul-10 02:17 108 0 gusting 1 8.3
2020-Jul-10 02:12 108 0 gusting 2 8.3
2020-Jul-10 02:07 108 1 gusting 1 8.3
2020-Jul-10 02:02 108 1 gusting 2 8.3
2020-Jul-10 01:57 107 1 gusting 2 8.3
2020-Jul-10 01:52 107 1 gusting 2 8.3
2020-Jul-10 01:47 107 1 gusting 1 8.3
2020-Jul-10 01:42 107 1 gusting 1 8.3
2020-Jul-10 01:37 107 1 gusting 2 8.3
2020-Jul-10 01:32 106 1 gusting 1 8.3
2020-Jul-10 01:27 106 1 gusting 1 8.3
2020-Jul-10 01:22 106 1 gusting 2 8.3
2020-Jul-10 01:17 131 1 gusting 1 8.3
2020-Jul-10 01:12 131 1 gusting 1 8.3
2020-Jul-10 01:07 131 1 gusting 2 8.3
2020-Jul-10 01:02 138 1 gusting 2 8.3
2020-Jul-10 00:57 136 0 gusting 2 8.3
2020-Jul-10 00:52 136 0 gusting 1 8.3
2020-Jul-10 00:47 136 1 gusting 1 8.3
2020-Jul-10 00:42 144 1 gusting 4 8.3
2020-Jul-10 00:37 127 1 gusting 2 8.3
2020-Jul-10 00:32 127 1 gusting 2 8.9
2020-Jul-10 00:27 127 1 gusting 2 8.9
2020-Jul-10 00:22 127 1 gusting 2 8.9
2020-Jul-10 00:17 127 0 gusting 2 8.9
2020-Jul-10 00:12 142 0 gusting 2 8.9
2020-Jul-10 00:07 168 1 gusting 4 8.9
2020-Jul-10 00:02 170 1 gusting 1 8.9
2020-Jul-09 23:57 158 1 gusting 4 8.9
2020-Jul-09 23:52 135 1 gusting 2 8.9
2020-Jul-09 23:47 139 1 gusting 1 8.9
2020-Jul-09 23:42 140 1 gusting 4 8.9
2020-Jul-09 23:37 139 1 gusting 2 8.9
2020-Jul-09 23:32 139 1 gusting 2 9.4
2020-Jul-09 23:27 139 0 gusting 2 9.4
2020-Jul-09 23:22 138 0 gusting 2 9.4
2020-Jul-09 23:17 139 0 gusting 1 9.4
2020-Jul-09 23:12 139 0 gusting 1 9.4
2020-Jul-09 23:07 139 0 gusting 1 10.0
2020-Jul-09 23:02 139 0 gusting 1 10.0
2020-Jul-09 22:57 139 0 gusting 1 10.0
2020-Jul-09 22:52 124 0 gusting 2 10.6
2020-Jul-09 22:47 115 1 gusting 1 10.6
2020-Jul-09 22:42 115 1 gusting 2 10.6
2020-Jul-09 22:37 113 1 gusting 2 10.6
2020-Jul-09 22:32 124 1 gusting 4 10.6
2020-Jul-09 22:27 132 1 gusting 2 11.1
2020-Jul-09 22:22 128 1 gusting 2 11.1
2020-Jul-09 22:17 117 1 gusting 4 11.1
2020-Jul-09 22:12 181 1 gusting 4 11.1
2020-Jul-09 22:07 11.1
2020-Jul-09 22:02 194 1 gusting 2 11.1
2020-Jul-09 21:57 167 1 gusting 4 11.1
2020-Jul-09 21:52 138 1 gusting 4 11.1
2020-Jul-09 21:47 107 1 gusting 4 11.1
2020-Jul-09 21:42 124 1 gusting 5 11.1
2020-Jul-09 21:37 284 1 gusting 5 11.1
2020-Jul-09 21:32 138 1 gusting 4 11.1
2020-Jul-09 21:27 108 1 gusting 2 11.7
2020-Jul-09 21:22 146 1 gusting 4 11.7
2020-Jul-09 21:17 103 1 gusting 5 11.7
2020-Jul-09 21:12 321 1 gusting 5 11.7
2020-Jul-09 21:07 093 1 gusting 1 11.7
2020-Jul-09 21:02 160 1 gusting 5 11.7
2020-Jul-09 20:57 120 1 gusting 6 11.7
2020-Jul-09 20:52 304 1 gusting 6 11.7
2020-Jul-09 20:47 145 1 gusting 5 12.2
2020-Jul-09 20:42 113 1 gusting 6 12.2
2020-Jul-09 20:37 153 1 gusting 4 12.2
2020-Jul-09 20:32 090 1 gusting 4 12.2
2020-Jul-09 20:27 358 1 gusting 5 12.2
2020-Jul-09 20:22 335 1 gusting 2 12.2
2020-Jul-09 20:17 150 1 gusting 7 12.2
2020-Jul-09 20:12 141 1 gusting 6 12.8
2020-Jul-09 20:07 203 1 gusting 6 12.8
2020-Jul-09 20:02 310 1 gusting 6 12.8
2020-Jul-09 19:57 305 1 gusting 7 12.8
2020-Jul-09 19:52 151 2 gusting 6 13.3
2020-Jul-09 19:47 344 2 gusting 6 13.3
2020-Jul-09 19:42 252 2 gusting 6 13.3
2020-Jul-09 19:37 356 1 gusting 6 13.3
2020-Jul-09 19:32 298 1 gusting 5 13.3
2020-Jul-09 19:27 287 1 gusting 4 13.9
2020-Jul-09 19:22 008 2 gusting 5 13.9
2020-Jul-09 19:17 316 4 gusting 6 13.9
2020-Jul-09 19:12 255 3 gusting 8 13.9
2020-Jul-09 19:07 320 1 gusting 6 13.9
2020-Jul-09 19:02 001 2 gusting 6 14.4
2020-Jul-09 18:57 302 4 gusting 10 14.4
2020-Jul-09 18:52 325 4 gusting 8 13.9
2020-Jul-09 18:47 307 4 gusting 6 14.4
2020-Jul-09 18:42 339 3 gusting 6 14.4
2020-Jul-09 18:37 316 2 gusting 8 14.4
2020-Jul-09 18:32 321 2 gusting 11 14.4
2020-Jul-09 18:27 330 2 gusting 6 14.4
2020-Jul-09 18:22 285 2 gusting 6 14.4
2020-Jul-09 18:17 322 4 gusting 6 14.4
2020-Jul-09 18:12 359 3 gusting 8 14.4
2020-Jul-09 18:07 350 2 gusting 7 14.4
2020-Jul-09 18:02 311 2 gusting 6 14.4
2020-Jul-09 17:57 331 4 gusting 11 14.4
2020-Jul-09 17:52 342 4 gusting 7 14.4
2020-Jul-09 17:47 339 4 gusting 8 14.4
2020-Jul-09 17:42 353 4 gusting 7 14.4
2020-Jul-09 17:37 224 4 gusting 7 14.4
2020-Jul-09 17:32 313 4 gusting 8 14.4
2020-Jul-09 17:27 349 4 gusting 7 14.4
2020-Jul-09 17:22 328 4 gusting 7 14.4
2020-Jul-09 17:17 305 4 gusting 11 14.4
2020-Jul-09 17:12 352 4 gusting 8 14.4
2020-Jul-09 17:07 298 4 gusting 7 14.4
2020-Jul-09 17:02 316 4 gusting 7 13.9
2020-Jul-09 16:57 341 4 gusting 7 13.9
2020-Jul-09 16:52 323 4 gusting 6 13.9
2020-Jul-09 16:47 304 4 gusting 8 13.3
2020-Jul-09 16:42 005 4 gusting 6 13.3
2020-Jul-09 16:37 312 4 gusting 7 13.9
2020-Jul-09 16:32 317 4 gusting 7 13.9
2020-Jul-09 16:27 342 4 gusting 7 13.9
2020-Jul-09 16:22 313 4 gusting 12 14.4
2020-Jul-09 16:17 006 4 gusting 7 14.4
2020-Jul-09 16:12 273 4 gusting 11 14.4
2020-Jul-09 16:07 341 4 gusting 7 14.4
2020-Jul-09 16:02 305 4 gusting 6 14.4
2020-Jul-09 15:57 300 2 gusting 10 14.4
2020-Jul-09 15:52 316 2 gusting 10 14.4
2020-Jul-09 15:47 309 2 gusting 6 14.4
2020-Jul-09 15:42 287 2 gusting 8 14.4
2020-Jul-09 15:37 335 4 gusting 5 14.4
2020-Jul-09 15:32 068 4 gusting 5 14.4
2020-Jul-09 15:27 344 4 gusting 10 15.0
2020-Jul-09 15:22 316 4 gusting 10 15.0
2020-Jul-09 15:17 305 2 gusting 10 15.0
2020-Jul-09 15:12 316 2 gusting 8 15.0
2020-Jul-09 15:07 270 2 gusting 7 15.0
2020-Jul-09 15:02 212 2 gusting 7 15.0
2020-Jul-09 14:57 334 4 gusting 6 15.0
2020-Jul-09 14:52 289 4 gusting 6 15.0
2020-Jul-09 14:47 319 4 gusting 8 15.0
2020-Jul-09 14:42 325 4 gusting 10 15.0
2020-Jul-09 14:37 357 4 gusting 7 15.6
2020-Jul-09 14:32 336 3 gusting 6 15.6
2020-Jul-09 14:27 318 2 gusting 7 15.6
2020-Jul-09 14:22 261 2 gusting 5 15.6
2020-Jul-09 14:17 292 4 gusting 6 15.0
2020-Jul-09 14:12 307 4 gusting 7 15.0
2020-Jul-09 14:07 076 4 gusting 6 15.0
2020-Jul-09 14:02 333 4 gusting 10 14.4
2020-Jul-09 13:57 291 4 gusting 6 14.4
2020-Jul-09 13:52 309 3 gusting 6 14.4
2020-Jul-09 13:47 298 2 gusting 7 14.4
2020-Jul-09 13:42 292 2 gusting 6 14.4
2020-Jul-09 13:37 351 1 gusting 6 14.4
2020-Jul-09 13:32 349 2 gusting 6 14.4
2020-Jul-09 13:27 183 4 gusting 6 14.4
2020-Jul-09 13:22 303 4 gusting 6 15.0
2020-Jul-09 13:17 323 4 gusting 8 15.6
2020-Jul-09 13:12 331 4 gusting 7 16.1
2020-Jul-09 13:07 315 4 gusting 8 16.1
2020-Jul-09 13:02 314 4 gusting 6 15.6
2020-Jul-09 12:57 350 4 gusting 7 15.6
2020-Jul-09 12:52 319 4 gusting 7 15.6
2020-Jul-09 12:47 274 4 gusting 6 15.0
2020-Jul-09 12:42 318 4 gusting 7 14.4
2020-Jul-09 12:37 324 4 gusting 6 14.4
2020-Jul-09 12:32 314 3 gusting 7 14.4
2020-Jul-09 12:27 309 2 gusting 6 13.9
2020-Jul-09 12:22 315 2 gusting 6 13.9
2020-Jul-09 12:17 350 2 gusting 5 13.9
2020-Jul-09 12:12 325 2 gusting 6 13.9
2020-Jul-09 12:07 300 1 gusting 8 13.9
2020-Jul-09 12:02 335 1 gusting 6 13.3
2020-Jul-09 11:57 011 2 gusting 4 13.3
2020-Jul-09 11:52 335 2 gusting 6 13.3
2020-Jul-09 11:47 265 2 gusting 5 13.3
2020-Jul-09 11:42 309 2 gusting 6 13.3
2020-Jul-09 11:37 008 4 gusting 6 13.9
2020-Jul-09 11:32 326 4 gusting 6 13.9
2020-Jul-09 11:27 314 4 gusting 6 14.4
2020-Jul-09 11:22 350 4 gusting 10 15.0
2020-Jul-09 11:17 302 4 gusting 10 15.0
2020-Jul-09 11:12 345 3 gusting 7 15.0
2020-Jul-09 11:07 005 2 gusting 6 15.0
2020-Jul-09 11:02 287 2 gusting 6 14.4
2020-Jul-09 10:57 313 2 gusting 4 14.4
2020-Jul-09 10:52 297 2 gusting 6 15.0
2020-Jul-09 10:47 345 2 gusting 6 15.0
2020-Jul-09 10:42 283 2 gusting 6 15.0
2020-Jul-09 10:37 009 4 gusting 7 15.6
2020-Jul-09 10:32 300 4 gusting 7 15.0
2020-Jul-09 10:27 324 4 gusting 7 15.0
2020-Jul-09 10:22 349 3 gusting 8 15.0
2020-Jul-09 10:17 336 2 gusting 6 15.0
2020-Jul-09 10:12 313 2 gusting 6 15.0
2020-Jul-09 10:07 342 2 gusting 6 14.4
2020-Jul-09 10:02 330 2 gusting 6 14.4
2020-Jul-09 09:57 330 2 gusting 6 14.4
2020-Jul-09 09:52 285 2 gusting 6 14.4
2020-Jul-09 09:47 321 2 gusting 6 15.0
2020-Jul-09 09:42 327 2 gusting 6 15.0
2020-Jul-09 09:37 071 2 gusting 6 14.4
2020-Jul-09 09:32 312 2 gusting 5 14.4
2020-Jul-09 09:27 285 1 gusting 6 14.4
2020-Jul-09 09:22 121 1 gusting 6 13.9
2020-Jul-09 09:17 332 1 gusting 6 13.3
2020-Jul-09 09:12 056 1 gusting 5 13.3
2020-Jul-09 09:07 041 1 gusting 5 13.3
2020-Jul-09 09:02 337 1 gusting 6 13.3
2020-Jul-09 08:57 358 1 gusting 6 13.3
2020-Jul-09 08:52 344 1 gusting 5 13.9
2020-Jul-09 08:47 323 1 gusting 6 13.9
2020-Jul-09 08:42 351 1 gusting 5 13.9
2020-Jul-09 08:37 321 1 gusting 4 13.9
2020-Jul-09 08:32 358 1 gusting 4 13.3
2020-Jul-09 08:27 285 1 gusting 5 13.3
2020-Jul-09 08:22 084 1 gusting 6 13.3
2020-Jul-09 08:17 330 1 gusting 4 12.8
2020-Jul-09 08:12 296 1 gusting 2 12.8
2020-Jul-09 08:07 347 1 gusting 2 12.8
2020-Jul-09 08:02 338 1 gusting 4 12.8
2020-Jul-09 07:57 280 1 gusting 6 12.8
2020-Jul-09 07:52 334 1 gusting 4 12.8
2020-Jul-09 07:47 301 1 gusting 6 12.8
2020-Jul-09 07:42 328 1 gusting 4 12.8
2020-Jul-09 07:37 329 1 gusting 4 13.3
2020-Jul-09 07:32 314 1 gusting 5 13.3
2020-Jul-09 07:27 346 1 gusting 4 13.3
2020-Jul-09 07:22 321 1 gusting 5 13.3
2020-Jul-09 07:17 023 1 gusting 4 12.8
2020-Jul-09 07:12 336 1 gusting 4 12.8
2020-Jul-09 07:07 342 0 gusting 4 12.8
2020-Jul-09 07:02 314 0 gusting 1 12.8
2020-Jul-09 06:57 339 1 gusting 2 12.2
2020-Jul-09 06:47 004 1 gusting 4 12.2
2020-Jul-09 06:42 011 1 gusting 4 12.2
2020-Jul-09 06:37 310 0 gusting 2 11.7
2020-Jul-09 06:32 326 0 gusting 4 11.7
2020-Jul-09 06:27 319 0 gusting 2 11.7
2020-Jul-09 06:22 343 0 gusting 2 11.7
2020-Jul-09 06:17 348 1 gusting 2 11.1
2020-Jul-09 06:12 340 1 gusting 2 11.1
2020-Jul-09 06:07 332 0 gusting 4 11.1
2020-Jul-09 06:02 066 0 gusting 1 11.1
2020-Jul-09 05:57 150 0 gusting 1 10.6
2020-Jul-09 05:52 146 0 gusting 1 10.6
2020-Jul-09 05:47 313 0 gusting 1 10.6
2020-Jul-09 05:42 116 0 gusting 1 10.6
2020-Jul-09 05:37 106 10.0
2020-Jul-09 05:32 106 10.0
2020-Jul-09 05:27 106 10.0
2020-Jul-09 05:22 106 10.0
2020-Jul-09 05:17 092 10.0
2020-Jul-09 05:12 091 10.0
2020-Jul-09 05:07 091 0 gusting 1 9.4
2020-Jul-09 05:02 090 0 gusting 1 9.4
2020-Jul-09 04:57 090 0 gusting 1 9.4
2020-Jul-09 04:52 090 0 gusting 1 9.4
2020-Jul-09 04:47 090 1 gusting 1 8.9
2020-Jul-09 04:42 090 1 gusting 1 8.9
2020-Jul-09 04:37 090 1 gusting 1 8.9
2020-Jul-09 04:32 090 1 gusting 1 8.3
2020-Jul-09 04:27 089 1 gusting 1 8.3
2020-Jul-09 04:22 090 1 gusting 1 8.3
2020-Jul-09 04:17 090 0 gusting 2 8.3
2020-Jul-09 04:12 089 0 gusting 1 8.3
2020-Jul-09 04:07 089 1 gusting 1 8.3
2020-Jul-09 04:02 089 1 gusting 2 8.3
2020-Jul-09 03:57 083 8.3
2020-Jul-09 03:52 083 8.3
2020-Jul-09 03:47 083 0 gusting 1 8.3
2020-Jul-09 03:42 083 0 gusting 1 8.9
2020-Jul-09 03:37 083 0 gusting 1 8.9
2020-Jul-09 03:32 083 0 gusting 1 8.9
2020-Jul-09 03:27 083 8.9
2020-Jul-09 03:22 083 8.9
2020-Jul-09 03:17 083 0 gusting 1 8.9
2020-Jul-09 03:12 083 0 gusting 2 8.9
2020-Jul-09 03:07 083 8.9
2020-Jul-09 03:02 083 0 gusting 1 8.9
2020-Jul-09 02:57 083 1 gusting 1 8.9
2020-Jul-09 02:52 083 1 gusting 1 8.9
2020-Jul-09 02:47 083 8.3
2020-Jul-09 02:42 083 8.3
2020-Jul-09 02:37 083 8.3
2020-Jul-09 02:32 083 0 8.3
2020-Jul-09 02:27 083 1 8.3
2020-Jul-09 02:22 083 1 gusting 1 8.3
2020-Jul-09 02:17 083 8.3
2020-Jul-09 02:12 083 0 gusting 1 8.3
2020-Jul-09 02:07 082 1 gusting 1 8.3
2020-Jul-09 02:02 083 1 gusting 1 8.3
2020-Jul-09 01:57 073 1 gusting 1 8.3
2020-Jul-09 01:52 066 1 gusting 2 8.3
2020-Jul-09 01:47 066 1 gusting 1 7.8
2020-Jul-09 01:42 066 1 gusting 2 7.8
2020-Jul-09 01:37 121 7.8
2020-Jul-09 01:32 114 7.8
2020-Jul-09 01:27 114 7.8
2020-Jul-09 01:22 114 0 gusting 1 7.8
2020-Jul-09 01:17 114 1 gusting 1 7.8
2020-Jul-09 01:12 114 1 gusting 2 7.8
2020-Jul-09 01:07 116 0 gusting 2 7.8
2020-Jul-09 01:02 116 0 gusting 2 7.8
2020-Jul-09 00:57 111 1 gusting 1 8.3
2020-Jul-09 00:52 031 1 gusting 1 8.3
2020-Jul-09 00:47 328 1 gusting 2 8.3
2020-Jul-09 00:42 123 1 gusting 2 8.3
2020-Jul-09 00:37 125 1 gusting 2 8.3
2020-Jul-09 00:32 128 1 gusting 2 8.3
2020-Jul-09 00:27 139 1 gusting 2 8.3
2020-Jul-09 00:22 141 1 gusting 2 8.3
2020-Jul-09 00:17 118 1 gusting 2 8.3
2020-Jul-09 00:12 136 1 gusting 2 8.3
2020-Jul-09 00:07 127 1 gusting 2 8.3
2020-Jul-09 00:02 127 1 gusting 2 8.3
2020-Jul-08 23:57 127 1 gusting 2 8.3
2020-Jul-08 23:52 135 1 gusting 1 8.3
2020-Jul-08 23:47 141 1 gusting 2 8.3
2020-Jul-08 23:42 157 1 gusting 0 8.3
2020-Jul-08 23:37 157 1 gusting 2 8.3
2020-Jul-08 23:32 142 1 gusting 2 8.3
2020-Jul-08 23:27 148 0 gusting 2 8.9
2020-Jul-08 23:22 122 0 gusting 2 8.9
2020-Jul-08 23:17 122 0 gusting 1 8.9
2020-Jul-08 23:12 128 0 gusting 1 8.9
2020-Jul-08 23:07 128 1 gusting 1 8.9
2020-Jul-08 23:02 128 1 gusting 1 8.9